Temperature
18 18 18 19 15 13 15 16 18 19 21 23 24 23 22 21 21 21 21 20 20 20 19 19 19 19 19 18 18 18 18 17 15 15 14 14 14 14 15 15 15 15 14 14 14 14 14 14 14
17 18 18 18 14 14 14 16 18 19 22 23 24 23 22 21 21 21 21 20 20 20 19 19 19 19 19 19 19 19 18 17 15 14 14 14 14 15 15 15 15 15 14 14 14 14 14 14 14
17 18 18 14 13 13 16 17 19 21 23 23 24 23 22 22 22 22 22 20 20 20 19 19 19 19 19 19 19 19 19 17 16 15 14 14 14 14 15 15 15 15 14 14 14 14 14 14 14
16 17 16 12 14 14 16 18 18 20 23 24 24 22 21 21 22 23 22 21 20 20 19 19 18 19 19 19 19 19 18 17 16 15 14 14 14 14 15 15 15 15 15 15 14 14 14 14 14
16 16 13 13 13 14 15 17 19 19 21 23 23 21 21 21 21 22 22 21 20 20 19 18 18 18 18 19 19 19 18 17 16 15 15 14 14 14 14 15 15 15 15 15 15 14 14 14 14
15 13 12 12 13 15 16 19 19 19 21 23 23 21 20 21 21 21 21 20 20 20 19 18 17 18 18 18 19 19 19 18 16 16 15 14 14 14 14 15 15 15 15 15 15 14 14 14 14
14 11 12 12 14 14 17 19 19 19 20 23 23 19 20 20 20 20 20 19 19 19 18 18 17 17 17 18 18 19 19 18 17 16 15 15 14 14 14 14 15 15 15 15 14 14 14 14 14
15 11 13 13 14 15 17 19 21 20 20 23 22 19 19 20 20 19 19 18 18 18 18 18 18 17 17 17 17 18 18 18 18 17 16 15 14 14 14 15 15 15 14 14 14 14 14 13 13
14 11 11 13 14 15 18 19 20 21 21 22 22 22 22 20 19 19 18 18 18 18 18 18 17 17 17 17 17 17 18 18 17 17 16 15 15 14 15 15 14 14 14 14 14 13 13 13 13
13 10 12 14 15 16 17 18 19 20 21 21 21 21 21 20 20 19 19 19 18 18 18 18 17 17 17 17 16 17 17 17 17 17 16 15 15 15 15 14 14 14 14 14 14 13 13 13 13
12 11 13 15 16 17 17 17 18 18 18 19 20 20 20 20 20 19 19 19 19 19 18 18 17 17 17 16 16 16 17 17 17 17 16 15 15 15 15 14 14 14 14 14 13 13 13 13 13
12 13 15 16 17 16 16 17 17 17 18 18 18 19 20 19 19 19 19 19 19 19 19 18 18 17 17 16 16 16 16 16 17 16 16 16 15 15 15 14 14 14 14 14 13 13 13 13 13
12 13 15 15 15 16 16 16 16 16 18 18 18 18 18 19 19 19 19 19 19 19 19 19 18 18 17 17 16 16 16 16 16 16 16 16 16 15 15 14 14 13 13 13 13 13 13 13 13
13 13 14 14 15 15 15 15 15 16 18 18 18 18 18 18 19 19 19 19 19 19 19 19 18 18 18 17 17 16 16 16 15 15 15 15 15 15 14 14 13 13 13 12 12 12 12 12 13
13 13 13 13 14 15 15 13 13 16 17 17 18 18 19 18 19 19 19 19 19 19 19 18 19 18 18 18 18 17 16 16 15 15 15 15 15 14 14 13 13 13 12 12 12 12 12 12 12
12 12 11 12 13 14 14 12 13 16 16 16 17 17 18 19 19 19 19 19 19 19 19 19 18 18 18 18 18 18 17 16 15 15 14 14 14 13 13 13 13 12 12 12 12 12 12 12 12
11 10 10 11 13 13 12 11 13 16 15 15 16 16 17 18 18 19 19 19 19 19 19 19 18 18 18 18 18 18 17 17 16 15 14 14 13 13 13 13 12 12 11 11 12 12 12 12 12
9 9 10 11 12 12 11 11 12 14 14 14 15 16 16 17 18 18 18 18 18 19 19 19 19 18 18 18 18 18 17 17 16 15 14 14 13 13 13 12 12 12 11 11 12 12 12 12 12
10 11 10 11 12 11 11 10 11 12 13 13 14 15 16 17 17 18 18 18 18 18 18 19 19 18 18 17 17 17 17 17 16 15 15 14 14 13 13 12 12 12 11 11 12 12 12 11 11
10 10 10 10 11 11 9 9 10 11 12 13 14 14 15 16 17 17 17 17 17 18 18 18 18 18 18 18 17 17 17 17 17 16 15 15 14 14 13 12 12 12 11 11 11 11 11 11 11
10 10 10 9 9 9 9 9 9 10 11 13 13 14 15 15 16 17 17 17 17 17 17 17 17 18 17 17 17 17 16 16 16 16 15 15 14 14 13 13 12 12 12 11 11 11 11 11 11
9 10 10 9 8 7 7 7 8 8 10 11 12 14 15 16 16 16 16 17 17 17 17 17 17 17 17 17 17 17 17 16 16 16 16 15 15 14 14 13 12 12 12 11 11 11 11 11 11
9 9 9 8 7 6 6 6 7 8 9 10 11 14 16 17 17 17 17 16 16 16 16 16 16 17 17 17 17 16 17 17 17 17 16 16 15 14 14 13 12 12 11 11 11 11 11 10 10
9 8 8 6 5 5 5 5 6 7 9 11 12 15 16 17 17 16 16 16 16 16 16 16 16 16 16 16 16 16 16 16 16 16 16 16 15 14 13 13 12 12 11 11 11 10 10 10 10
8 6 5 5 5 5 6 6 6 8 9 10 11 14 15 16 16 16 16 15 15 15 15 16 16 16 16 16 16 16 16 16 16 16 16 16 15 14 13 12 12 11 11 10 10 10 10 9 9
7 6 6 6 5 5 6 6 7 9 10 12 12 13 14 14 14 15 15 15 15 15 15 15 15 15 15 15 15 15 15 16 16 16 16 15 15 14 14 12 12 11 10 10 9 9 9 8 8
7 6 6 5 4 4 5 5 7 10 11 10 11 12 12 13 13 13 13 13 14 14 14 14 14 14 15 15 15 14 15 15 15 15 15 14 14 13 12 12 11 10 9 9 8 8 8 8 7
8 7 5 4 4 4 5 5 7 9 11 10 9 10 11 12 12 12 11 12 12 13 13 13 14 14 14 14 14 14 14 14 15 15 14 13 12 12 11 11 10 9 8 8 7 7 7 7 6
7 7 6 4 3 4 4 7 8 9 10 9 9 11 11 11 11 11 11 11 11 11 12 12 13 13 13 13 13 13 13 13 13 13 13 12 11 11 10 10 8 7 7 7 6 6 6 6 5
7 6 5 4 4 4 3 6 9 8 8 9 10 10 10 10 10 10 10 10 10 10 11 11 12 12 13 13 12 12 12 12 12 12 11 11 10 10 9 8 7 6 6 6 6 5 5 5 4
Wind_Speed
9 9 3 4 5 3 4 7 5 6 5 3 3 6 6 4 3 3 4 13 16 17 19 21 21 21 20 19 18 17 17 18 20 20 19 18 17 15 14 13 12 12 11 12 13 14 14 13 11
5 5 5 5 4 2 7 6 6 8 6 5 2 6 5 2 2 7 7 13 19 18 19 19 22 21 20 19 18 17 18 19 19 20 19 18 17 16 15 14 13 12 12 11 11 11 11 10 9
4 3 4 4 5 7 7 5 5 6 6 4 2 5 5 6 6 8 10 18 17 15 18 20 22 21 20 18 17 17 18 19 20 20 19 18 17 16 15 14 13 12 11 11 10 10 10 9 8
3 4 5 3 9 9 8 5 6 9 5 1 3 5 3 1 5 9 18 19 18 13 17 21 22 21 20 18 18 18 19 19 20 19 19 18 16 15 14 14 12 11 10 10 10 9 9 8 7
4 4 3 4 9 8 8 7 6 8 5 1 3 4 2 6 5 15 19 20 19 14 16 21 22 21 20 19 18 19 19 19 19 19 18 17 15 14 14 14 12 11 9 9 9 9 8 7 6
3 4 5 8 10 8 9 8 5 9 7 2 4 6 0 1 10 13 14 16 18 17 16 19 22 21 20 19 19 20 20 20 19 18 17 15 14 14 14 15 13 11 9 9 9 9 8 6 5
5 5 7 8 7 9 11 6 6 9 10 6 6 7 2 3 8 11 11 12 14 15 15 15 18 19 20 19 19 20 20 20 19 18 16 14 12 13 15 15 13 11 9 8 8 8 7 6 5
6 6 6 6 7 8 7 3 5 11 11 6 7 10 7 8 8 10 10 11 11 12 13 12 15 16 16 17 19 19 19 19 18 17 16 13 12 14 17 16 13 11 9 8 7 7 7 5 5
5 4 7 7 8 7 5 4 7 4 4 1 3 9 8 10 10 12 10 9 12 13 12 12 12 13 15 15 17 18 18 18 17 17 17 14 12 13 16 16 14 12 10 8 8 7 6 5 6
5 6 8 5 5 3 4 3 6 5 3 2 4 4 7 10 11 13 14 15 15 15 14 13 13 12 13 14 14 14 15 16 16 16 16 13 12 12 14 16 15 13 11 9 8 7 5 4 6
8 8 5 6 6 4 4 5 5 2 3 1 2 6 6 7 10 13 16 16 16 16 16 15 15 13 13 10 11 11 12 13 14 16 16 14 11 10 11 12 12 11 10 7 6 6 6 5 6
5 6 5 4 7 5 4 3 4 3 5 1 3 3 1 4 7 9 13 15 14 16 17 16 16 15 13 12 11 11 10 10 11 14 16 12 8 7 9 8 10 9 8 7 6 6 7 7 8
6 5 5 6 6 6 6 5 4 6 10 6 2 2 4 5 6 7 7 8 10 15 17 18 17 17 15 11 10 11 10 11 13 13 15 14 9 6 7 7 9 9 8 7 7 7 7 6 7
5 6 7 7 6 5 7 8 5 8 9 9 8 6 8 9 9 7 7 8 9 12 15 17 19 18 16 14 13 10 11 13 14 13 15 17 14 10 8 6 7 7 9 9 8 7 6 4 5
4 3 3 4 5 4 3 10 8 10 9 11 13 12 10 10 10 10 10 9 10 11 13 16 19 19 19 17 15 11 12 13 11 13 17 18 16 14 10 6 5 8 11 11 10 7 6 4 4
5 3 3 6 5 6 7 13 8 10 9 11 13 13 14 13 12 12 12 11 10 9 11 15 17 18 19 17 15 11 12 12 11 14 16 18 18 17 12 7 6 11 12 10 5 5 4 4 4
2 3 5 7 5 6 10 10 10 10 9 11 11 12 13 15 14 12 12 12 12 11 11 13 15 18 19 18 15 13 11 11 12 14 14 16 17 18 14 8 8 13 9 5 5 3 3 3 2
6 5 5 6 5 3 8 10 11 8 8 10 11 12 12 14 17 14 12 12 13 12 11 12 15 17 18 14 10 9 10 10 9 11 12 16 17 18 15 9 10 11 7 5 5 5 3 3 2
5 4 4 5 4 5 6 9 12 11 10 12 13 14 14 15 14 11 10 10 10 9 9 10 12 14 14 11 12 12 13 12 11 9 13 17 17 18 14 9 9 8 7 7 8 5 4 3 2
1 3 4 4 3 4 7 12 12 14 13 16 18 18 18 15 13 12 11 9 9 9 9 9 11 12 13 14 14 11 12 9 10 9 11 16 18 18 16 13 11 9 8 8 7 5 4 2 2
4 4 3 4 6 6 7 10 8 9 10 13 16 17 17 18 17 14 12 12 10 10 10 9 10 11 12 12 8 5 4 3 3 7 10 11 17 18 16 15 12 11 10 9 7 7 7 4 2
3 1 2 3 5 6 4 7 9 8 11 11 11 11 13 15 15 13 12 11 11 11 9 9 9 10 11 12 12 13 11 10 10 10 9 10 12 15 17 16 14 13 10 10 8 6 5 6 4
5 5 6 4 4 5 3 5 11 7 8 11 11 12 12 12 12 11 10 9 8 7 6 7 7 8 9 12 15 16 12 9 6 8 10 10 9 11 14 15 14 13 11 10 9 7 6 4 5
7 6 6 5 4 5 6 7 9 6 7 8 9 10 10 9 8 7 6 4 3 3 3 4 5 6 8 12 15 17 16 12 12 12 13 11 8 8 11 13 12 12 11 11 10 8 8 5 5
6 5 3 4 2 7 5 5 10 12 11 11 12 11 8 5 4 5 5 4 3 2 2 2 3 5 7 11 14 16 17 18 19 17 16 14 11 8 14 13 12 12 11 10 9 9 8 7 8
6 7 6 4 4 6 5 7 9 12 10 8 7 7 7 6 5 5 5 5 4 4 3 3 4 6 7 10 13 13 14 13 12 14 15 15 12 9 12 12 12 11 12 11 9 8 7 6 7
7 5 5 3 2 5 7 8 10 7 3 6 8 9 9 9 8 8 7 6 6 5 5 5 5 7 8 10 11 11 13 13 13 13 11 10 9 9 12 12 13 12 11 11 11 8 7 7 5
5 7 5 4 2 5 7 6 6 6 5 7 8 9 9 10 10 10 8 8 7 6 6 6 6 8 8 9 11 11 12 12 13 13 14 13 12 13 14 14 14 13 12 11 10 8 7 7 5
5 4 5 4 4 3 6 8 6 5 4 5 6 8 11 12 13 12 10 8 8 7 6 6 6 6 7 9 10 11 11 11 13 13 14 14 13 15 15 15 14 13 12 11 10 8 8 7 6
6 6 6 4 4 4 3 9 8 6 6 7 12 14 15 15 14 13 11 9 8 8 8 7 7 7 7 8 10 12 13 13 13 13 14 15 16 15 15 14 14 12 12 10 10 9 7 7 6
Wind_Direction
320 354 48 53 53 49 250 247 242 286 286 240 174 131 125 123 168 180 129 142 142 149 155 153 149 145 140 137 135 135 138 140 139 136 131 126 121 115 110 109 111 112 109 103 98 101 105 107 106
351 19 51 61 101 212 256 246 259 249 234 230 154 113 107 107 139 123 128 151 147 150 153 155 152 148 144 141 140 141 144 145 144 140 135 131 127 122 118 114 114 115 114 111 106 105 106 107 105
355 48 83 95 163 200 231 234 272 293 244 202 72 76 121 161 161 155 154 148 146 149 153 158 155 151 148 146 145 146 148 148 147 144 141 137 135 131 127 123 121 120 118 116 112 109 107 106 104
60 64 69 127 224 226 224 243 322 313 298 36 82 57 81 228 185 155 144 146 146 147 152 160 157 155 152 150 149 149 149 150 150 148 146 146 144 141 137 134 133 131 127 123 119 116 114 112 108
67 100 136 223 239 252 252 260 271 279 273 248 111 105 26 348 114 137 146 149 150 150 154 162 161 159 156 155 153 153 152 152 153 152 153 154 154 152 149 147 145 144 138 132 128 125 122 117 109
85 93 151 220 240 261 266 251 253 259 262 258 136 121 96 53 123 142 151 153 154 154 157 165 165 162 161 160 159 158 157 157 158 158 158 159 162 164 162 159 156 155 149 141 137 134 130 123 110
140 140 188 208 229 253 260 252 220 236 243 225 148 118 158 183 163 145 149 151 154 155 159 165 168 167 166 166 165 164 162 162 162 162 161 163 169 171 170 166 165 162 156 150 145 141 135 128 109
161 149 200 211 214 242 256 270 242 219 224 217 134 139 177 200 173 131 135 143 154 159 164 166 167 168 168 170 170 169 167 165 165 164 161 163 170 171 168 169 168 165 161 156 148 141 133 119 90
129 136 209 212 200 236 275 310 299 236 195 172 135 167 180 160 142 122 128 144 164 170 170 169 167 168 168 171 175 172 170 170 169 165 164 163 163 162 165 168 167 166 164 158 149 139 127 103 67
143 186 219 222 200 238 312 322 315 308 201 108 62 110 125 142 151 147 156 167 175 179 179 176 174 172 170 175 175 174 174 175 171 169 170 169 165 163 165 168 168 168 166 159 149 135 121 96 68
171 194 221 267 286 294 302 316 336 327 243 50 141 169 151 156 170 168 169 176 182 182 183 184 182 177 176 176 173 178 177 177 177 178 179 175 172 169 165 165 168 165 160 150 133 111 103 101 87
197 214 207 249 280 286 277 300 324 267 241 355 357 323 209 186 205 198 183 182 182 182 189 186 185 182 182 180 180 183 182 183 185 189 186 176 173 173 170 171 168 166 161 148 131 115 104 98 93
233 251 249 249 272 263 248 238 241 259 272 286 209 193 243 239 230 236 229 207 190 189 191 190 187 187 185 182 184 186 189 190 192 193 191 182 176 175 175 175 172 172 162 145 129 119 112 101 89
212 229 268 280 272 250 245 252 229 246 269 297 296 258 229 237 239 237 233 227 212 205 198 192 191 190 186 187 188 188 191 192 193 197 193 187 182 177 174 167 169 167 157 143 132 127 117 99 90
147 134 312 270 241 236 251 268 232 240 262 278 283 282 265 236 238 241 237 228 216 210 206 196 196 192 190 191 190 189 190 191 193 199 198 190 184 176 170 163 160 158 147 133 122 114 102 89 80
115 109 262 274 241 220 200 257 256 249 254 263 269 275 277 265 236 235 244 244 231 210 205 203 201 196 195 194 192 191 190 191 194 195 196 189 180 170 162 159 157 151 142 132 122 118 97 82 82
119 179 225 274 250 224 207 247 256 246 236 251 261 265 267 269 260 241 239 245 247 224 206 203 204 199 199 198 193 191 187 190 192 191 189 182 173 165 161 158 153 147 136 128 127 112 120 106 97
190 198 226 246 309 257 224 243 264 274 249 248 257 262 265 263 262 254 241 238 242 238 217 206 206 204 201 198 192 190 188 189 187 188 184 174 170 164 158 154 150 145 133 131 127 119 97 101 110
153 167 239 258 345 341 280 270 270 274 272 266 262 259 256 257 260 263 255 246 244 245 230 213 207 208 201 193 190 191 195 194 191 187 178 173 169 165 159 155 152 150 148 150 140 121 107 79 82
244 263 273 287 351 335 291 282 267 257 251 247 250 254 256 257 263 260 255 250 241 240 235 221 212 209 204 200 196 195 194 194 190 178 173 172 169 167 165 160 162 156 146 146 148 136 122 99 74
201 205 240 295 339 356 331 296 269 273 262 256 249 249 251 251 254 254 252 250 246 242 236 230 218 210 205 202 187 155 118 97 145 172 177 176 172 170 167 164 161 160 158 163 162 151 142 143 94
163 83 128 32 16 320 3 301 288 282 292 281 271 261 254 252 250 249 246 247 246 245 245 241 232 217 205 194 185 177 182 184 188 185 177 171 172 170 167 165 163 163 160 160 163 155 147 140 143
141 99 81 72 55 329 267 247 284 298 284 282 280 271 261 256 251 250 247 239 241 245 249 253 251 235 212 197 193 193 194 185 164 158 158 164 169 169 167 165 163 162 160 158 152 146 142 138 148
123 66 49 52 59 291 230 205 282 267 252 287 303 296 276 266 254 242 237 217 225 243 251 260 260 250 223 205 199 198 189 167 157 162 168 169 166 166 168 167 163 161 158 156 151 145 140 135 132
101 90 35 345 288 258 231 218 254 260 262 268 285 294 289 270 247 233 218 208 211 223 246 262 266 262 233 211 206 203 191 177 176 174 175 171 171 173 174 166 162 159 153 148 143 141 138 136 135
142 136 166 217 253 289 286 240 255 263 280 289 300 317 332 328 308 275 250 230 228 229 237 259 266 260 239 217 210 203 188 182 182 177 174 176 177 171 165 158 154 151 148 145 140 137 133 132 133
139 164 156 120 326 287 277 285 295 278 319 359 6 5 353 341 329 311 294 273 254 248 246 246 256 258 239 218 203 193 183 177 173 169 161 159 152 151 152 151 148 148 145 141 138 138 132 133 133
133 141 120 141 212 280 288 273 258 286 328 348 352 347 338 334 326 315 306 294 282 268 266 266 258 249 237 212 196 187 180 174 165 160 159 157 153 152 151 150 147 144 140 138 134 133 135 133 136
149 155 152 155 169 204 288 275 233 249 283 303 319 322 318 311 305 297 289 284 285 288 287 284 280 263 232 204 186 171 168 162 159 162 160 154 149 150 151 150 148 145 141 139 139 139 142 140 140
170 179 157 171 230 214 241 274 270 270 278 301 312 311 308 302 294 286 277 272 277 285 287 281 278 261 232 197 174 166 160 157 158 157 153 149 147 147 147 145 143 142 140 140 143 145 145 144 147
Height
1526 1526 1526 1527 1529 1538 1537 1527 1517 1512 1508 1505 1503 1504 1505 1507 1510 1514 1510 1509 1512 1514 1516 1518 1520 1522 1524 1525 1526 1527 1528 1529 1530 1531 1532 1533 1533 1534 1534 1533 1533 1533 1534 1535 1536 1537 1538 1539 1539
1524 1526 1527 1526 1535 1543 1537 1521 1514 1509 1505 1503 1502 1502 1504 1505 1506 1506 1507 1510 1513 1515 1516 1518 1521 1523 1524 1525 1526 1527 1528 1528 1530 1531 1532 1533 1534 1534 1534 1534 1534 1534 1535 1536 1537 1538 1539 1539 1539
1522 1524 1526 1528 1535 1537 1527 1514 1509 1504 1502 1501 1500 1501 1503 1504 1505 1505 1506 1510 1512 1514 1516 1518 1521 1523 1524 1525 1526 1527 1528 1528 1530 1531 1532 1533 1534 1535 1535 1535 1535 1536 1536 1537 1538 1539 1539 1540 1540
1520 1523 1525 1531 1531 1522 1515 1509 1507 1506 1502 1499 1499 1501 1504 1505 1505 1505 1506 1509 1511 1514 1516 1518 1520 1522 1524 1525 1526 1527 1528 1529 1530 1531 1533 1534 1535 1535 1536 1536 1537 1537 1538 1538 1539 1540 1540 1541 1541
1518 1520 1526 1531 1526 1516 1510 1508 1509 1507 1503 1499 1499 1501 1503 1504 1505 1505 1506 1508 1510 1513 1516 1518 1520 1522 1524 1525 1526 1527 1528 1529 1530 1532 1533 1534 1535 1536 1537 1538 1538 1539 1540 1540 1541 1541 1542 1542 1542
1517 1518 1529 1530 1522 1513 1507 1506 1508 1506 1502 1499 1499 1501 1503 1504 1505 1506 1507 1508 1511 1513 1515 1518 1520 1522 1524 1525 1526 1527 1528 1529 1530 1532 1533 1535 1536 1537 1538 1539 1539 1540 1541 1541 1542 1542 1542 1542 1542
1515 1519 1523 1521 1518 1514 1505 1504 1505 1503 1500 1498 1497 1500 1502 1504 1505 1506 1508 1509 1512 1514 1515 1518 1520 1522 1524 1525 1526 1527 1528 1529 1530 1532 1533 1535 1536 1537 1538 1539 1540 1541 1541 1542 1542 1542 1542 1542 1542
1510 1515 1517 1516 1514 1510 1502 1501 1500 1498 1496 1496 1495 1497 1500 1502 1505 1507 1509 1510 1512 1514 1515 1517 1519 1521 1523 1524 1526 1527 1528 1529 1530 1531 1533 1534 1536 1537 1538 1539 1540 1541 1541 1542 1542 1542 1542 1542 1542
1508 1515 1516 1511 1509 1505 1499 1499 1497 1494 1493 1493 1492 1494 1497 1500 1504 1506 1508 1510 1511 1513 1514 1516 1518 1520 1522 1524 1525 1526 1527 1528 1530 1531 1532 1533 1535 1536 1537 1539 1540 1540 1541 1541 1542 1542 1542 1542 1541
1505 1512 1508 1502 1501 1500 1499 1498 1497 1494 1493 1493 1492 1493 1495 1499 1501 1503 1505 1507 1509 1511 1513 1515 1517 1519 1520 1522 1523 1524 1526 1527 1528 1530 1531 1532 1533 1535 1536 1537 1538 1539 1540 1540 1541 1541 1541 1541 1541
1500 1504 1501 1499 1498 1498 1498 1498 1496 1495 1494 1493 1493 1493 1495 1497 1499 1500 1502 1504 1506 1509 1511 1513 1515 1517 1518 1519 1521 1523 1524 1525 1527 1528 1529 1530 1532 1533 1534 1535 1536 1538 1539 1539 1539 1540 1540 1540 1539
1498 1497 1497 1497 1498 1498 1498 1497 1496 1495 1494 1494 1495 1495 1495 1496 1498 1499 1500 1501 1504 1506 1508 1510 1512 1514 1515 1517 1519 1521 1522 1523 1525 1526 1527 1528 1529 1531 1532 1534 1535 1536 1537 1538 1538 1538 1539 1538 1538
1495 1495 1495 1496 1497 1497 1496 1495 1494 1493 1492 1492 1493 1494 1495 1496 1497 1498 1499 1501 1502 1503 1505 1507 1509 1511 1512 1514 1516 1518 1519 1521 1523 1524 1525 1526 1527 1529 1530 1532 1533 1534 1535 1536 1537 1537 1537 1537 1536
1492 1493 1494 1494 1494 1494 1494 1492 1491 1489 1490 1489 1488 1490 1492 1493 1494 1495 1496 1498 1500 1501 1502 1503 1505 1507 1509 1510 1512 1514 1516 1518 1520 1521 1522 1523 1525 1526 1528 1529 1531 1532 1534 1535 1535 1536 1536 1535 1535
1491 1493 1493 1491 1491 1491 1492 1490 1487 1486 1487 1485 1484 1484 1485 1487 1488 1490 1492 1493 1495 1497 1499 1500 1501 1503 1504 1506 1508 1510 1512 1515 1516 1518 1519 1521 1522 1524 1525 1527 1529 1530 1532 1533 1533 1534 1534 1534 1533
1490 1494 1497 1491 1488 1488 1493 1489 1483 1482 1482 1481 1480 1479 1479 1479 1481 1484 1486 1488 1490 1492 1494 1495 1497 1498 1500 1501 1503 1506 1508 1510 1512 1514 1516 1517 1519 1521 1523 1525 1526 1528 1529 1531 1532 1532 1532 1532 1532
1493 1499 1498 1493 1486 1485 1487 1485 1478 1477 1478 1477 1476 1475 1474 1473 1473 1476 1479 1481 1484 1486 1488 1490 1492 1493 1495 1497 1499 1501 1504 1506 1508 1510 1512 1514 1516 1518 1520 1522 1524 1526 1527 1529 1530 1530 1531 1530 1530
1497 1498 1496 1493 1486 1483 1484 1482 1476 1473 1474 1473 1471 1470 1469 1467 1466 1469 1472 1475 1477 1480 1481 1483 1485 1487 1490 1493 1496 1497 1499 1501 1503 1505 1508 1510 1513 1515 1518 1520 1522 1524 1525 1526 1527 1528 1528 1528 1528
1489 1491 1493 1490 1485 1484 1483 1481 1475 1471 1470 1469 1466 1464 1463 1461 1461 1463 1465 1468 1470 1472 1474 1476 1478 1480 1483 1486 1489 1491 1493 1495 1498 1500 1503 1506 1509 1511 1514 1516 1519 1521 1523 1524 1525 1526 1526 1526 1526
1488 1491 1492 1489 1486 1485 1484 1478 1471 1465 1462 1460 1459 1457 1455 1455 1456 1457 1459 1462 1463 1465 1467 1469 1470 1473 1475 1478 1481 1484 1487 1489 1491 1494 1497 1501 1504 1507 1509 1512 1515 1517 1520 1521 1522 1523 1524 1524 1524
1488 1491 1491 1491 1488 1487 1486 1476 1468 1459 1454 1451 1450 1448 1448 1448 1448 1450 1453 1455 1457 1459 1461 1462 1464 1466 1468 1471 1475 1478 1481 1484 1486 1488 1491 1494 1498 1501 1504 1507 1510 1513 1516 1517 1519 1520 1521 1521 1521
1489 1488 1488 1490 1495 1498 1495 1492 1470 1462 1454 1447 1443 1442 1441 1441 1442 1443 1445 1448 1450 1452 1454 1455 1457 1458 1461 1464 1466 1468 1471 1473 1476 1480 1484 1488 1492 1495 1499 1502 1505 1508 1511 1514 1516 1517 1518 1518 1518
1489 1489 1491 1494 1498 1503 1499 1499 1474 1464 1457 1446 1441 1438 1438 1438 1438 1439 1440 1442 1444 1445 1447 1448 1449 1451 1453 1455 1457 1460 1463 1466 1470 1474 1478 1481 1485 1489 1493 1496 1500 1503 1506 1509 1511 1513 1514 1515 1515
1486 1491 1495 1500 1505 1510 1498 1501 1483 1468 1455 1447 1441 1437 1435 1435 1436 1437 1438 1438 1439 1441 1441 1442 1443 1444 1446 1448 1450 1452 1455 1458 1462 1466 1470 1474 1478 1482 1486 1490 1494 1497 1500 1503 1506 1508 1510 1511 1511
1488 1499 1509 1509 1509 1506 1493 1493 1479 1457 1450 1448 1444 1439 1436 1435 1435 1435 1435 1436 1436 1437 1437 1438 1438 1439 1440 1441 1442 1445 1448 1451 1455 1459 1463 1467 1470 1474 1478 1483 1487 1491 1495 1498 1501 1504 1505 1506 1507
1489 1496 1507 1507 1508 1502 1488 1486 1467 1450 1446 1444 1442 1439 1437 1436 1435 1434 1433 1432 1432 1432 1432 1433 1433 1433 1434 1435 1435 1437 1440 1444 1448 1452 1456 1459 1463 1467 1471 1476 1481 1485 1489 1492 1496 1499 1501 1502 1502
1489 1495 1498 1506 1511 1510 1495 1481 1463 1447 1445 1443 1441 1439 1437 1436 1435 1433 1431 1430 1428 1428 1428 1428 1428 1428 1428 1428 1428 1430 1432 1436 1441 1446 1450 1453 1457 1461 1466 1470 1475 1480 1483 1487 1491 1494 1496 1498 1498
1486 1491 1500 1510 1516 1511 1497 1485 1468 1451 1446 1444 1442 1440 1438 1436 1433 1431 1429 1427 1425 1423 1422 1422 1422 1422 1421 1421 1421 1422 1425 1430 1435 1439 1443 1447 1451 1456 1460 1464 1469 1474 1479 1483 1487 1490 1492 1494 1494
1488 1491 1496 1504 1510 1512 1502 1475 1454 1449 1446 1445 1442 1439 1437 1434 1431 1427 1425 1422 1420 1419 1417 1416 1416 1416 1415 1415 1415 1416 1419 1424 1429 1433 1438 1442 1446 1450 1455 1460 1465 1470 1474 1479 1483 1486 1488 1490 1490
1485 1489 1494 1504 1506 1505 1506 1476 1448 1447 1445 1442 1439 1436 1433 1429 1425 1421 1418 1415 1414 1412 1411 1411 1410 1410 1409 1409 1410 1412 1415 1419 1424 1428 1433 1437 1441 1446 1451 1456 1461 1467 1471 1475 1479 1482 1485 1485 1485